Pagina principale
METAR-TAF:

METAR-TAF

Aeroporti :

Seghedino, Ungheria

latitudine: 46-15N, longitudine: 020-06E, altezza: 82 m

Osservazione

Il bollettino è stato emesso 35 minuti fa, alle 15:15 UTC
Vento 4 kt da sud-ovest
Temperature 6°C
Umidità 81%
Pressione 1013 hPa
Visibilità 10 km o più
nessuna nube inferiore a 1500 m e nessun cumulonembo

METAR: LHUD 191515Z 23004KT CAVOK 06/03 Q1013

Ora: 16:50 (15:50 UTC)


TAF: mancante

Osservazioni e previsioni meteorologiche di più di 4000 aeroporti (messaggi METAR e TAF).

Le stazioni disponibili sono rappresentate dai dischi gialli e rossi sulla carta.

Puntare il mouse per vedere il nome della stazione.

Clicca sopra per visualizzare le osservazioni e previsioni meteorologiche.

Per cambiare la mappa : fare clic sui pulsanti verdi con una croce nera per ingrandire, il pulsante verde con un trattino per diminuire, o sulla freccia verde per le mappe adiacenti.


METAR-TAF: